Location: McFarlands Corners
(41.4117°N, 81.3382°W)
Time: 12:45:17
(UTC+00:00)

Courier 1B Rocket - Pass Details

Date: 22 February 2026
Orbit: 920 x 1201 km, 28.2° (Epoch: 10 March)

Event Time Altitude Azimuth Distance (km) Brightness Sun altitude
Rises 03:34:41 0° 253° (WSW) 3,576 8.3 -48.6°
Enters shadow 03:34:55 - 252° (WSW) 3,511 8.2 -48.6°
Reaches altitude 10° 03:38:34 10° 230° (SW) 2,664 - -49.1°
Maximum altitude 03:41:51 14° 199° (SSW) 2,388 - -49.6°
Drops below altitude 10° 03:45:13 10° 168° (SSE) 2,744 - -50.0°
Sets 03:49:20 0° 145° (SE) 3,754 - -50.6°
